Preview of NWS' New Version of Forecast
This preview is not operational and should not be used for support decisions.

Regional Weather Roundup (RWR)

Issued by National Weather Service (NWS)

                            
000
ASUS45 KBOU 171910
RWRCO 

WEATHER ROUNDUP FOR COLORADO
NATIONAL WEATHER SERVICE DENVER/BOULDER CO
100 PM MDT WED APR 17 2019

NOTE: "FAIR" INDICATES FEW OR NO CLOUDS BELOW 12000 FEET WITH NO
SIGNIFICANT WEATHER AND/OR OBSTRUCTIONS TO VISIBILITY.

COZ001>005-013-030-031-172000-
...NORTHWEST COLORADO...
  
CITY           SKY/WX    TMP DP  RH WIND       PRES   REMARKS
CRAIG          FAIR      52  30  43 W9        30.10F                  
HAYDEN         FAIR      47  30  51 W14       30.11F                  
MEEKER         PTSUNNY   49  30  48 MISG      30.10F                  
RANGELY        FAIR      54  33  44 W7        30.10F                  
RABBIT EARS PA FOG      N/A N/A N/A W10G17    30.13F VSB 1/4          
STEAMBOAT SPGS FAIR      44  32  61 S5        30.10F                  
WALDEN         FAIR      46  21  36 NW13G20   30.08F                  
$$

COZ006>008-011-172000-
...WEST CENTRAL VALLEYS...
  
CITY           SKY/WX    TMP DP  RH WIND       PRES   REMARKS
GRAND JUNCTION FAIR      62  33  33 NW15G21   30.03F                  
MONTROSE       FAIR      57  34  41 VRB7G20   30.04F                  
EAGLE          FAIR      53  28  38 CALM      30.05F                  
RIFLE          FAIR      58  31  35 NW18G29   30.04F                  
DELTA          FAIR      65  33  30 W15G22    30.00F                  
NUCLA          FAIR      59  32  36 W7        30.04F                  
$$

COZ017>023-064>068-172000-
...SOUTHWEST COLORADO...
  
CITY           SKY/WX    TMP DP  RH WIND       PRES   REMARKS
DURANGO        FAIR      59  25  27 SW6       29.93F                  
CORTEZ         FAIR      60  32  34 NW12G24   29.96F                  
PAGOSA SPRINGS CLOUDY    55  27  33 NE7       29.97S                  
TELLURIDE      FAIR      43  30  61 N6        30.09S                  
WOLF CREEK PAS CLOUDY    34  21  60 N5        30.16F WCI  30          
$$

COZ009-010-012-014-032>034-037-058>063-172000-
...CENTRAL COLORADO...
  
CITY           SKY/WX    TMP DP  RH WIND       PRES   REMARKS
ASPEN          FAIR      52  28  39 N10G16    30.04F                  
BUENA VISTA    PTSUNNY   55  21  26 NE9       29.98F                  
COPPER MTN     PTSUNNY   34  23  64 NW10G25   30.15S WCI  26          
BERTHOUD PASS  PTSUNNY   23  12  63 NW25      30.12F WCI   7          
COTTONWOOD PAS CLOUDY    46  19  34 NW3       30.06S                  
GUNNISON       FAIR      53  27  36 W9        30.01F                  
GRANBY         LGT RAIN  42  32  68 E9        30.06F                  
KREMMLING      PTSUNNY   48  30  49 N16G25    30.07S                  
LEADVILLE      PTSUNNY   41  22  46 NW9G16    30.06F                  
MONARCH PASS   CLOUDY    32  23  69 NW13      30.23S WCI  22          
SALIDA         PTSUNNY   58  19  21 NW10      30.03F                  
SUNLIGHT       CLOUDY    32  27  80 W10G17    30.19F WCI  24          
WILKERSON PASS CLOUDY    36  23  60 W3        30.13F                  
$$

COZ069>075-172000-
...SAN LUIS VALLEY/SANGRE DE CRISTO MOUNTAINS...
  
CITY           SKY/WX    TMP DP  RH WIND       PRES   REMARKS
ALAMOSA        FAIR      59  20  22 N9        29.93F                  
DEL NORTE      PTSUNNY   56  22  26 E8        29.97F                  
LA VETA PASS   NOT AVBL                                               
SAGUACHE       CLOUDY    55  23  28 CALM      29.96F                  
$$

COZ035-036-038>040-172000-
...NORTHERN COLORADO FRONT RANGE...
  
CITY           SKY/WX    TMP DP  RH WIND       PRES   REMARKS
DENVER INTL AP PTSUNNY   56  36  47 N16G23    29.97F                  
AURORA         PTSUNNY   56  40  55 N14       29.97F                  
FRONT RANGE AP PTSUNNY  N/A N/A N/A N10G17      N/A                   
ERIE MUNI ARPT CLOUDY    58  36  43 E6        30.02F                  
BOULDER MUN AP LGT RAIN  55  39  54 CALM      29.97F                  
CENTENNIAL     PTSUNNY   55  39  54 E8        29.97F                  
BROOMFIELD     PTSUNNY   55  41  58 N8        29.99F                  
FORT COLLINS   CLOUDY    60  35  39 CALM      29.95F                  
LONGMONT       LGT RAIN  55  43  64 W5        29.99F                  
$$

COZ041-046-047-076>085-087-088-172000-
...PIKES PEAK/PALMER DIVIDE AND SOUTHERN FOOTHILLS...
  
CITY           SKY/WX    TMP DP  RH WIND       PRES   REMARKS
COLO. SPRINGS  PTSUNNY   55  40  56 N9        29.97F                  
A. F. ACADEMY  PTSUNNY   52  36  54 N6        29.99                   
SCHRIEVER AFB  NOT AVBL                                               
CHEYENNE MTN   PTSUNNY   48  36  62 NW10      29.93F                  
ELLICOTT         N/A    N/A N/A N/A N18       29.94F                  
FALCON         NOT AVBL                                               
FORT CARSON    NOT AVBL                                               
LIMON          FAIR      60  37  42 N23G36    29.94F                  
MONUMENT HILL  PTSUNNY   50  34  53 N14G22    30.01F                  
CANON CITY     NOT AVBL                                               
WALSENBURG     NOT AVBL                                               
TRINIDAD       FAIR      62  37  39 NE9G18    29.91F                  
$$

COZ042>045-048>051-090-091-172000-
...NORTHEAST COLORADO...
  
CITY           SKY/WX    TMP DP  RH WIND       PRES   REMARKS
GREELEY ARPT   FAIR      61  35  37 N10       29.95F                  
AKRON          FAIR      59  35  40 N25G35    29.94F                  
BURLINGTON     FAIR      65  36  34 N25G36    29.88F                  
WRAY           FAIR      63  32  31 N24G33    29.91S                  
YUMA           NOT AVBL                                               
STERLING       FAIR      59  34  38 N18G26    29.93F                  
HOLYOKE        FAIR      61  34  36 N25G36    29.91F                  
FORT MORGAN      N/A     60  31  33 N17G28    29.96F                  
$$

COZ086-089-092>099-172000-
...SOUTHEAST COLORADO...
  
CITY           SKY/WX    TMP DP  RH WIND       PRES   REMARKS
PUEBLO         CLOUDY    63  37  38 NW15      29.89F                  
LA JUNTA       FAIR      71  36  27 N16G30    29.86F                  
LAMAR          FAIR      71  38  29 NE25G37   29.81F                  
SPRINGFIELD      N/A     65  39  38 N26G37    29.83F                  
$$